Regional Weather Roundup
Issued by NWS

Home | Current Version | Previous Version | Graphics & Text | Print | Product List | Glossary On
Versions: 1 2 3 4 5 6 7 8 9 10 11 12 13 14 15 16 17 18 19 20 21 22 23 24 25 26 27 28 29 30 31 32 33 34 35 36 37 38 39 40 41 42 43 44 45 46 47 48 49 50
000
ASUS43 KMKX 280459
RWRWI

WISCONSIN REGIONAL WEATHER ROUNDUP
NATIONAL WEATHER SERVICE MILWAUKEE/SULLIVAN WI
1200 AM CDT SAT MAR 28 2015

NOTE: "FAIR" INDICATES FEW OR NO CLOUDS BELOW 12,000 FEET WITH NO
SIGNIFICANT WEATHER AND/OR OBSTRUCTIONS TO VISIBILITY.

WIZ001-002-006>008-014>016-023>028-280600-
NORTHWEST WISCONSIN

CITY           SKY/WX    TMP DP  RH WIND       PRES   REMARKS
SUPERIOR ARPT  CLEAR     23  18  80 NE3       30.21R
ASHLAND        CLEAR     14  10  84 W3        30.21R
HAYWARD        CLEAR     22   5  48 CALM      30.18R
SIREN          PTCLDY    23   9  54 CALM      30.17S
CUMBERLAND     PTCLDY    27  18  69 S3        30.16S
RICE LAKE      MOCLDY    25  16  66 CALM      30.18S
CHETEK         PTCLDY    22  13  69 CALM      30.18R
LADYSMITH      CLEAR     24  14  64 N5        30.18R WCI  18
EAU CLAIRE     NOT AVBL
MENOMONIE      PTCLDY    26  13  56 SW3       30.20R
NEW RICHMOND   MOCLDY    25  13  59 SW3       30.19R
OSCEOLA        PTCLDY    26  15  62 S6        30.21S WCI  19
$$

WIZ003>005-009-010-017-018-280600-
NORTH CENTRAL WISCONSIN

CITY           SKY/WX    TMP DP  RH WIND       PRES   REMARKS
MANITOWISH WTR CLEAR     13   8  81 CALM      30.15S
ARBOR VITAE    CLEAR     17   6  62 CALM      30.15S
WOODRUFF       CLEAR     17   6  62 CALM      30.15S
RHINELANDER    CLEAR     11   1  64 N5        30.16R WCI   3
EAGLE RIVER    CLEAR     11   3  71 CALM      30.15S
LAND O LAKES   CLEAR      5   1  82 CALM      30.17R
PHILLIPS       PTCLDY    19   9  64 CALM      30.15S
TOMAHAWK       CLEAR     12   7  81 CALM      30.17R
MEDFORD        CLEAR     17  11  77 E3        30.15R
MERRILL        CLEAR     14   9  81 CALM      30.17S
$$

WIZ029-030-035-036-043>047-280600-
CENTRAL WISCONSIN

CITY           SKY/WX    TMP DP  RH WIND       PRES   REMARKS
WAUSAU         CLEAR     20   9  62 CALM      30.16S
MOSINEE        CLEAR     23  10  58 CALM      30.17S
MARSHFIELD     CLEAR     20  12  71 W3        30.17R
STEVENS POINT  CLEAR     15   8  75 CALM      30.18S
WAUPACA        CLEAR     22  12  65 E3        30.21S
WAUTOMA        NOT AVBL
WISC RAPIDS    CLEAR     17   9  70 CALM      30.20R
CAMP DOUGLAS   NOT AVBL
$$

WIZ011>013-019>022-031-037>040-048>050-280600-
NORTHEAST WISCONSIN

CITY           SKY/WX    TMP DP  RH WIND       PRES   REMARKS
ANTIGO         CLEAR     17   7  63 SE3       30.16S
SHAWANO        CLEAR     19  12  76 CALM      30.23R
OCONTO         CLEAR     19   4  51 CALM      30.25R
STURGEON BAY   CLEAR     18   5  57 N5        30.25R WCI  11
GREEN BAY      CLEAR     21  13  71 E3        30.23S
MANITOWOC      NOT AVBL
APPLETON       FAIR      23  10  58 E5        30.21S WCI  17
CLINTONVILLE   CLEAR     21  10  63 E5        30.22R WCI  15
OSHKOSH        CLEAR     19  12  74 S3        30.22R
$$

WIZ032>034-041-042-053>061-280600-
SOUTHWEST WISCONSIN

CITY           SKY/WX    TMP DP  RH WIND       PRES   REMARKS
LA CROSSE      CLEAR     24  14  65 E3        30.21R
SPARTA         CLEAR     17  10  75 CALM      30.21S
VIROQUA        CLEAR     23  11  60 CALM      30.18R
BOSCOBEL       CLEAR     20  13  74 CALM      30.22R
PRAIRIE DU CHI CLEAR     21  13  70 CALM      30.21F
PLATTEVILLE    CLEAR     25  13  61 W5        30.19R WCI  19
$$

WIZ056-057-062-063-064-067-068-280600-
SOUTH CENTRAL WISCONSIN

CITY           SKY/WX    TMP DP  RH WIND       PRES   REMARKS
REEDSBURG      CLEAR     22  11  63 CALM      30.20R
BARABOO/DELLS  CLEAR     20   8  58 SE3       30.19S
LONE ROCK      NOT AVBL
MINERAL POINT  CLEAR     25   9  50 W3        30.18R
MADISON        CLEAR     23   6  48 S3        30.21R
MIDDLETON      CLEAR     25   8  48 SE3       30.21S
WATERTOWN      CLEAR     20  13  75 CALM      30.21R
MONROE         CLEAR     27  10  50 E3        30.19S
JANESVILLE     CLEAR     23  16  74 SE3       30.21S
$$

WIZ051-052-058>065-066-070>072-280600-
SOUTHEAST WISCONSIN

CITY           SKY/WX    TMP DP  RH WIND       PRES   REMARKS
MILWAUKEE      CLEAR     24  11  57 NE6       30.22S WCI  17
WAUKESHA       CLEAR     19  12  73 CALM      30.21S
MILWAUKEE/TIMM CLEAR     19  12  73 CALM      30.23S
RACINE         CLEAR     24  12  60 NE7       30.23S WCI  16
BURLINGTON     CLEAR     15  12  88 CALM      30.21S
KENOSHA        CLEAR     17  12  80 NW3       30.22S
FOND DU LAC    FAIR      18  11  74 SW3       30.22R
SHEBOYGAN      CLEAR     17  12  80 CALM      30.22S
WEST BEND      CLEAR     18  12  79 CALM      30.21S
JUNEAU         CLEAR     19  13  76 SE3       30.22S
$$

LSZ147-162-280600-
LAKE SUPERIOR

STATION/POSITION TIME  TEMP    WIND        PRES    WAVE
                       AIR SEA DIR/SP/G            HT/PER
                 (UTC) (F)     (DEG/KT/KT) (MB)    (FT/S)
DEVILS ISLAND    0400   23     130/  4/  4 1024.4R
PORT WING        0440   18     180/  4/  5 1023.0R
$$

LMZ867-665-643>646-280600-
LAKE MICHIGAN

STATION/POSITION TIME  TEMP    WIND        PRES    WAVE
                       AIR SEA DIR/SP/G            HT/PER
                 (UTC) (F)     (DEG/KT/KT) (MB)    (FT/S)
NORTHPORT PIER   0418   18      20/  7/ 11 1024.0S
SISTER BAY       0417   16        CALM       N/A
KEWAUNEE LAKESHO 0400           70/  6/ 11   N/A
SHEBOYGAN LAKESH 0400   25      40/ 11/ 13 1024.8R
PORT WASHINGTON  0440   22     330/  3/  5 1024.0S
MILWAUKEE LAKESH 0400   26      10/  9/ 11   N/A
KENOSHA   LAKESH 0400   25     330/  7/ 12 1023.4R
$$

TC  - TEMPERATURE IN CELSIUS
VSB - VISIBILITY IN STATUTE MILES
WCI - WIND CHILL INDEX
HX  - HEAT INDEX



USA.gov is the U.S. government's official web portal to all federal, state and local government web resources and services.